Regional Weather Roundup
Issued by NWS Northern Indiana

Home | Current Version | Previous Version | Text Only | Print | Product List | Glossary Off
Versions: 1 2 3 4 5 6 7 8 9 10 11 12 13 14 15 16 17 18 19 20 21 22 23 24 25 26 27 28 29 30 31 32 33 34 35 36 37 38 39 40 41 42 43 44 45 46 47 48 49 50

409
ASUS43 KIWX 071100
RWRIWX

KIWX WEATHER ROUNDUP
NATIONAL WEATHER SERVICE NORTHERN INDIANA
600 AM EST WED DEC 07 2016

NOTE: "FAIR" INDICATES FEW OR NO CLOUDS BELOW 12,000 FEET WITH NO
SIGNIFICANT WEATHER AND/OR OBSTRUCTIONS TO VISIBILITY.

* THESE STATIONS ARE NOT UNDER NWS QUALITY CONTROL. THEY ALSO MAY NOT
  REPORT WEATHER SUCH AS PRECIPITATION OR FOG.

INZ001>027-071200-
NORTHERN INDIANA

CITY           SKY/WX    TMP DP  RH WIND       PRES   REMARKS
GARY*          PTCLDY    28  19  69 W12G23    30.05R WCI  18
SOUTH BEND     PTCLDY    25  18  74 SW10      30.02R WCI  15
GOSHEN         PTCLDY    27  18  69 SW14      30.01S WCI  16
MONTICELLO*    PTCLDY    28  18  66 W10       30.06R WCI  18
WARSAW*        PTCLDY    28  18  64 W9        30.03S WCI  20
ANGOLA*        CLEAR     27  21  80 W7        29.98S WCI  19
FORT WAYNE     PTCLDY    27  20  75 W10       30.04F WCI  17
PERU/GRISSOM   PTCLDY    26  20  76 W7        30.04R WCI  18

$$
INZ028>050-071200-
CENTRAL INDIANA

CITY           SKY/WX    TMP DP  RH WIND       PRES   REMARKS
LAFAYETTE      CLEAR     27  20  75 W6        30.09R WCI  20
KOKOMO*        PTCLDY    26  21  81 W9        30.07R WCI  17
MUNCIE*        CLEAR     27  20  75 SW6       30.06S WCI  20
INDIANAPOLIS   PTCLDY    25  20  81 SW6       30.09R WCI  18

$$
MIZ043>046-050>051-056>058-064>065-071>073-077>080-071200-
SOUTHWEST LOWER MICHIGAN

CITY           SKY/WX    TMP DP  RH WIND       PRES   REMARKS
BATTLE CREEK   CLOUDY    30  22  72 W15G24    29.95S WCI  19
BENTON HARBOR  PTCLDY    32  22  66 W20       29.99S WCI  20
COLDWATER*     CLOUDY    27  22  82 SW9       29.97R WCI  18
HILLSDALE*     CLOUDY    28  23  80 W8        29.95R WCI  20
HOLLAND        CLOUDY    32  23  69 W20G30    29.95R WCI  20
GRAND RAPIDS   CLOUDY    32  22  66 W25       29.92S WCI  19
KALAMAZOO      CLOUDY    31  21  66 W14G23    29.97R WCI  21
STURGIS*       CLOUDY    27  21  79 W8        29.98R WCI  18
THREE RIVERS*  FAIR      28  22  76 W6        29.99R WCI  22

$$
OHZ001>008-015>018-024>025-071200-
NORTHWEST OHIO

CITY           SKY/WX    TMP DP  RH WIND       PRES   REMARKS
DEFIANCE       PTCLDY    28  20  71 SW7       30.04R WCI  21
FINDLAY        CLEAR     28  21  75 W13       30.03R WCI  17
TOLEDO EXPRESS MOCLDY    28  23  81 W13       30.01R WCI  17
TOLEDO METCALF CLEAR     29  24  82 SW9       30.02R WCI  20
LIMA           CLEAR     27  23  85 W10       30.03F WCI  17

$$
AND FOR LAKE MICHIGAN COASTAL AND OPEN LAKE BUOY OBSERVATIONS

STATION/POSITION TEMP    WIND        PRES    VSBY  WAVE
                 AIR SEA DIR/SP/G                  HT/PER
                 (F)     (DEG/KT/KT) (MB)    (MI)  (FT/S)
CALUMET HARBOR    27     240/  9/ 14 1016.5R
MICHIGAN CITY     31     230/ 28/ 32   N/A
BURNS HARBOR      30     250/ 19/ 28 1017.6R
SAINT JOSEPH      35     260/ 20     1015.9R

$$
&&




USA.gov is the U.S. government's official web portal to all federal, state and local government web resources and services.